Weather History for Dublin, Ireland

Change the Weather History Date:

Friday, March 7, 2014

  Actual Average Record
Temperature  
Mean Temperature 42 °F -  
Max Temperature 48 °F 50 °F 57 °F (2009)
Min Temperature 35 °F 38 °F 28 °F (2011)
Degree Days  
Heating Degree Days 24    
Moisture  
Dew Point 38 °F    
Average Humidity 73    
Maximum Humidity 100    
Minimum Humidity 38    
Precipitation  
Precipitation 0.00 in 0.07 in - ()
Sea Level Pressure  
Sea Level Pressure 30.07 in    
Wind  
Wind Speed 16 mph ()    
Max Wind Speed 30 mph    
Max Gust Speed -    
Visibility 6.8 miles    
Events Rain    
Averages and records for this station are not official NWS values.
T = Trace of Precipitation, MM = Missing Value Source: Averaged Metar Reports

Daily Weather History Graph

Daily Weather History Graph

Search for Another Location

Airport:

Trip Planner

Search our weather history database for the weather conditions in past years. The results will help you decide how hot, cold, wet, or windy it might be!

Date:

Astronomy

Mar. 07, 2014 Rise Set
Actual Time 6:59 AM GMT 6:14 PM GMT
Civil Twilight 6:24 AM GMT 6:49 PM GMT
Nautical Twilight 5:44 AM GMT 7:29 PM GMT
Astronomical Twilight 5:03 AM GMT 8:10 PM GMT
Moon 9:50 AM GMT (3/7) 12:55 AM GMT (3/7)
Length of Visible Light 12h 24m
Length of Day
11h 14m
Waxing Crescent, 40% of the Moon is Illuminated
Mar 7
Waxing Crescent
Mar 8
First Quarter
Mar 16
Full
Mar 24
Last Quarter
Mar 30
New

Hourly Weather History & Observations

Time (GMT) Temp. Windchill Dew Point Humidity Pressure Visibility Wind Dir Wind Speed Gust Speed Precip Events Conditions
12:00 AM 50 °F - 48 °F 89% 29.83 in 16 mi SSW 15.7 mph - - Rain Light Rain
12:00 AM 50.0 °F - 48.2 °F 94% 29.83 in 6.2 mi SSW 13.8 mph - N/A Rain Light Rain
12:30 AM 50.0 °F - 48.2 °F 94% 29.80 in 6.2 mi SSW 16.1 mph - N/A Rain Light Rain
1:00 AM 50 °F - 48 °F 89% 29.81 in 9 mi SSW 15.7 mph - - Rain Light Rain
1:00 AM 50.0 °F - 48.2 °F 94% 29.80 in 6.2 mi SSW 15.0 mph - N/A Rain Light Rain
1:30 AM 50.0 °F - 48.2 °F 94% 29.80 in 6.2 mi SSW 13.8 mph - N/A Rain Rain
2:00 AM 50 °F - 48 °F 91% 29.81 in 9 mi SSW 15.7 mph - - Rain Light Rain
2:00 AM 50.0 °F - 48.2 °F 94% 29.80 in 6.2 mi SSW 15.0 mph - N/A Rain Rain
2:30 AM 50.0 °F - 48.2 °F 94% 29.80 in 6.2 mi SSW 13.8 mph - N/A Rain Light Rain
3:00 AM 50 °F - 48 °F 91% 29.79 in 7 mi SW 17.9 mph - - Rain Light Rain
3:00 AM 50.0 °F - 48.2 °F 94% 29.77 in 6.2 mi SW 16.1 mph - N/A Rain Light Rain
3:30 AM 50.0 °F - 48.2 °F 94% 29.80 in 6.2 mi SW 15.0 mph - N/A Rain Light Rain
4:00 AM 50 °F - 49 °F 94% 29.82 in 6 mi SW 17.9 mph - - Rain Light Rain
4:00 AM 50.0 °F - 48.2 °F 94% 29.80 in 5.6 mi SW 18.4 mph - N/A Rain Light Rain
4:30 AM 50.0 °F - 48.2 °F 94% 29.83 in 4.3 mi WSW 19.6 mph - N/A Rain Light Rain
5:00 AM 49 °F - 47 °F 88% 29.86 in 7 mi West 17.9 mph - - Rain Light Rain
5:00 AM 48.2 °F - 48.2 °F 100% 29.83 in 6.2 mi West 17.3 mph - N/A Rain Light Rain
5:30 AM 48.2 °F - 44.6 °F 87% 29.86 in 6.2 mi West 21.9 mph - N/A   Mostly Cloudy
6:00 AM 47 °F - 44 °F 83% 29.91 in 12 mi West 24.6 mph - - Rain Light Rain
6:00 AM 46.4 °F 37.9 °F 42.8 °F 87% 29.89 in 6.2 mi West 25.3 mph - N/A   Mostly Cloudy
6:30 AM 46.4 °F 39.0 °F 42.8 °F 87% 29.92 in 6.2 mi West 19.6 mph - N/A   Mostly Cloudy
7:00 AM 45 °F - 42 °F 86% 29.96 in 19 mi West 15.7 mph - -   Overcast
7:00 AM 44.6 °F 37.4 °F 42.8 °F 93% 29.95 in 6.2 mi West 16.1 mph - N/A   Mostly Cloudy
7:30 AM 44.6 °F 38.1 °F 41.0 °F 87% 29.95 in 6.2 mi WSW 13.8 mph - N/A   Scattered Clouds
8:00 AM 45 °F - 41 °F 81% 30.00 in 28 mi West 20.1 mph - -   Scattered Clouds
8:00 AM 44.6 °F 36.6 °F 41.0 °F 87% 29.98 in 6.2 mi West 19.6 mph - N/A   Partly Cloudy
8:30 AM 44.6 °F 35.7 °F 41.0 °F 87% 30.01 in 6.2 mi West 24.2 mph - N/A   Scattered Clouds
9:00 AM 46 °F - 41 °F 77% 30.04 in 28 mi WSW 22.4 mph - -   Mostly Cloudy
9:00 AM 46.4 °F 38.5 °F 41.0 °F 81% 30.01 in 6.2 mi WSW 21.9 mph - N/A   Scattered Clouds
9:30 AM 46.4 °F 37.7 °F 39.2 °F 76% 30.04 in 6.2 mi West 26.5 mph - N/A   Scattered Clouds
10:00 AM 46 °F - 36 °F 59% 30.09 in 25 mi West 29.1 mph - -   Scattered Clouds
10:00 AM 46.4 °F 37.4 °F 37.4 °F 71% 30.06 in 6.2 mi West 28.8 mph - N/A   Partly Cloudy
10:30 AM 46.4 °F 37.4 °F 33.8 °F 62% 30.06 in 6.2 mi West 28.8 mph - N/A   Partly Cloudy
11:00 AM 46 °F - 35 °F 55% 30.14 in 25 mi West 26.8 mph - -   Scattered Clouds
11:00 AM 46.4 °F 37.2 °F 35.6 °F 66% 30.12 in 6.2 mi West 29.9 mph - N/A   Partly Cloudy
11:30 AM 46.4 °F 38.1 °F 33.8 °F 62% 30.15 in 6.2 mi West 24.2 mph - N/A   Partly Cloudy
12:00 PM 46 °F - 31 °F 44% 30.18 in 25 mi West 29.1 mph - -   Scattered Clouds
12:00 PM 46.4 °F 37.4 °F 32.0 °F 57% 30.15 in 6.2 mi West 28.8 mph - N/A   Partly Cloudy
12:30 PM 46.4 °F 37.2 °F 28.4 °F 50% 30.18 in 6.2 mi West 29.9 mph - N/A   Partly Cloudy
1:00 PM 48 °F - 30 °F 38% 30.21 in 28 mi West 24.6 mph - -   Partly Cloudy
1:00 PM 48.2 °F - 28.4 °F 46% 30.18 in 6.2 mi West 25.3 mph - N/A   Scattered Clouds
1:30 PM 48.2 °F - 30.2 °F 50% 30.18 in 6.2 mi West 24.2 mph - N/A   Scattered Clouds
2:00 PM 47 °F - 30 °F 39% 30.22 in 28 mi West 22.4 mph - -   Scattered Clouds
2:00 PM 48.2 °F - 30.2 °F 50% 30.18 in 6.2 mi West 20.7 mph - N/A   Scattered Clouds
2:30 PM 48.2 °F - 30.2 °F 50% 30.21 in 6.2 mi West 19.6 mph - N/A   Mostly Cloudy
3:00 PM 48 °F - 31 °F 38% 30.24 in 28 mi West 20.1 mph - -   Scattered Clouds
3:00 PM 48.2 °F - 32.0 °F 54% 30.21 in 6.2 mi West 20.7 mph - N/A   Scattered Clouds
3:30 PM 46.4 °F 40.7 °F 30.2 °F 53% 30.24 in 6.2 mi West 12.7 mph - N/A   Scattered Clouds
4:00 PM 47 °F - 30 °F 39% 30.26 in 31 mi West 13.4 mph - -   Scattered Clouds
4:00 PM 48.2 °F - 30.2 °F 50% 30.24 in 6.2 mi West 13.8 mph - N/A   Mostly Cloudy
4:30 PM 46.4 °F 41.1 °F 32.0 °F 57% 30.24 in 6.2 mi West 11.5 mph - N/A   Mostly Cloudy
5:00 PM 46 °F - 32 °F 46% 30.26 in 31 mi West 6.7 mph - -   Scattered Clouds
5:00 PM 46.4 °F 42.4 °F 30.2 °F 53% 30.24 in 6.2 mi West 8.1 mph - N/A   Mostly Cloudy
5:30 PM 46.4 °F - 30.2 °F 53% 30.24 in 6.2 mi Variable 2.3 mph - N/A   Mostly Cloudy
6:00 PM 44 °F - 32 °F 51% 30.27 in 31 mi SSW 2.2 mph - -   Scattered Clouds
6:00 PM 44.6 °F 43.1 °F 32.0 °F 61% 30.24 in 6.2 mi Variable 3.5 mph - N/A   Mostly Cloudy
6:30 PM 39.2 °F - 32.0 °F 75% 30.24 in 6.2 mi Variable 2.3 mph - N/A   Mostly Cloudy
7:00 PM 35 °F - 30 °F 75% 30.27 in 25 mi SE 4.5 mph - -   Scattered Clouds
7:00 PM 35.6 °F 32.8 °F 30.2 °F 81% 30.24 in 6.2 mi SE 3.5 mph - N/A   Mostly Cloudy
7:30 PM 37.4 °F 29.8 °F 32.0 °F 81% 30.27 in 6.2 mi SSE 11.5 mph - N/A   Mostly Cloudy
8:00 PM 42 °F - 36 °F 71% 30.29 in 25 mi SE 6.7 mph - -   Scattered Clouds
8:00 PM 42.8 °F 39.3 °F 35.6 °F 76% 30.27 in 6.2 mi SE 5.8 mph - N/A   Scattered Clouds
8:30 PM 42.8 °F 37.5 °F 37.4 °F 81% 30.24 in 6.2 mi SE 9.2 mph - N/A   Scattered Clouds
9:00 PM 43 °F - 36 °F 67% 30.27 in 25 mi SE 8.9 mph - -   Scattered Clouds
9:00 PM 42.8 °F 37.0 °F 35.6 °F 76% 30.24 in 6.2 mi SSE 10.4 mph - N/A   Scattered Clouds
9:30 PM 42.8 °F 38.0 °F 35.6 °F 76% 30.24 in 6.2 mi SE 8.1 mph - N/A   Mostly Cloudy
10:00 PM 43 °F - 37 °F 74% 30.25 in 25 mi SSE 11.2 mph - -   Scattered Clouds
10:00 PM 42.8 °F 36.6 °F 37.4 °F 81% 30.24 in 6.2 mi SSE 11.5 mph - N/A   Mostly Cloudy
10:30 PM 44.6 °F 37.8 °F 37.4 °F 76% 30.21 in 6.2 mi SSE 15.0 mph - N/A   Mostly Cloudy
11:00 PM 44 °F - 38 °F 72% 30.22 in 25 mi SE 20.1 mph - -   Scattered Clouds
11:00 PM 44.6 °F 36.9 °F 37.4 °F 76% 30.21 in 6.2 mi SE 18.4 mph - N/A   Mostly Cloudy
11:30 PM 44.6 °F 36.9 °F 39.2 °F 81% 30.18 in 6.2 mi SE 18.4 mph - N/A   Mostly Cloudy